Weather History for La Grange, TX

Change the Weather History Date:

Thursday, December 5, 2013

  Actual Average (KAUS) Record (KAUS)
Temperature  
Mean Temperature 47 °F 52 °F  
Max Temperature 56 °F 65 °F 86 °F (1995)
Min Temperature 38 °F 39 °F 19 °F (2009)
Degree Days  
Heating Degree Days 18 13  
Month to date heating degree days 65  
Since 1 July heating degree days 350  
Cooling Degree Days 0 1  
Month to date cooling degree days 5  
Year to date cooling degree days 2746  
Moisture  
Dew Point 23 °F    
Average Humidity 45    
Maximum Humidity 66    
Minimum Humidity 19    
Precipitation  
Precipitation 0.00 in 0.08 in 2.60 in (1969)
Month to date precipitation 0.42  
Year to date precipitation 30.32  
Snow  
Snow 0.00 in - - ()
Month to date snowfall  
Since 1 July snowfall  
Snow Depth -    
Sea Level Pressure  
Sea Level Pressure 29.95 in    
Wind  
Wind Speed 11 mph (North)    
Max Wind Speed 18 mph    
Max Gust Speed 28 mph    
Visibility 8 miles    
Events Rain    
T = Trace of Precipitation, MM = Missing Value Source: NWS Daily Summary

Daily Weather History Graph

Daily Weather History Graph

Search for Another Location

Airport:

Trip Planner

Search our weather history database for the weather conditions in past years. The results will help you decide how hot, cold, wet, or windy it might be!

Date:

Astronomy

Dec. 05, 2013 Rise Set
Actual Time 7:09 AM CST 5:27 PM CST
Civil Twilight 6:43 AM CST 5:54 PM CST
Nautical Twilight 6:13 AM CST 6:23 PM CST
Astronomical Twilight 5:44 AM CST 6:52 PM CST
Moon 9:36 AM CST (12/5) 8:42 PM CST (12/5)
Length of Visible Light 11h 10m
Length of Day
10h 18m
Waxing Crescent, 11% of the Moon is Illuminated
Dec 5
Waxing Crescent
Dec 9
First Quarter
Dec 17
Full
Dec 25
Last Quarter
Jan 1
New

Hourly Weather History & Observations

Time (CST) Temp. Windchill Dew Point Humidity Pressure Visibility Wind Dir Wind Speed Gust Speed Precip Events Conditions
12:15 AM - - - N/A% 29.79 in 4.0 mi South 11.5 mph - N/A   Haze
12:35 AM - - - N/A% 29.79 in 4.0 mi South 8.1 mph - N/A   Haze
12:55 AM - - - N/A% 29.78 in 4.0 mi South 9.2 mph - N/A   Haze
1:15 AM - - - N/A% 29.79 in 4.0 mi South 8.1 mph - N/A   Haze
1:35 AM - - - N/A% 29.78 in 4.0 mi South 9.2 mph - N/A   Haze
1:55 AM - - - N/A% 29.78 in 4.0 mi South 6.9 mph - N/A   Haze
2:15 AM - - - N/A% 29.78 in 4.0 mi SSW 6.9 mph - N/A   Haze
2:35 AM - - - N/A% 29.78 in 4.0 mi SSW 8.1 mph - N/A   Haze
2:55 AM - - - N/A% 29.78 in 4.0 mi SSW 9.2 mph - N/A   Haze
3:15 AM - - - N/A% 29.78 in 5.0 mi SSW 8.1 mph 16.1 mph N/A   Haze
3:35 AM - - - N/A% 29.79 in 5.0 mi South 6.9 mph - N/A   Haze
3:55 AM - - - N/A% 29.79 in 5.0 mi South 5.8 mph - N/A   Haze
4:15 AM - - - N/A% 29.80 in 5.0 mi SSW 8.1 mph - N/A   Haze
4:35 AM - - - N/A% 29.80 in 5.0 mi South 6.9 mph - N/A   Haze
4:55 AM - - - N/A% 29.80 in 5.0 mi South 4.6 mph - N/A   Haze
5:15 AM - - - N/A% 29.82 in 5.0 mi Calm Calm - N/A   Haze
5:35 AM - - - N/A% 29.84 in 3.0 mi WNW 3.5 mph - N/A   Heavy Drizzle
5:55 AM - - - N/A% 29.85 in 2.0 mi Calm Calm - N/A Rain Heavy Rain
6:15 AM - - - N/A% 29.88 in 3.0 mi North 16.1 mph 24.2 mph N/A Rain Light Rain
6:35 AM 56.7 °F - 22.3 °F 26% 29.91 in 4.0 mi North 13.8 mph 20.7 mph N/A Rain Light Rain
6:55 AM 55.2 °F - 13.6 °F 19% 29.93 in 5.0 mi North 15.0 mph 21.9 mph N/A Rain Rain
7:15 AM 53.8 °F - 14.0 °F 21% 29.94 in 7.0 mi North 9.2 mph - N/A   Overcast
7:35 AM 52.7 °F - 14.2 °F 22% 29.96 in 10.0 mi North 17.3 mph 20.7 mph N/A   Overcast
7:55 AM 50.9 °F - 16.2 °F 25% 29.96 in 10.0 mi North 17.3 mph - N/A   Overcast
8:15 AM 49.5 °F - 17.6 °F 28% 29.97 in 7.0 mi North 15.0 mph 25.3 mph N/A   Overcast
8:35 AM 48.9 °F - 17.8 °F 29% 29.97 in 10.0 mi North 16.1 mph 20.7 mph N/A   Overcast
8:55 AM 48.2 °F - 18.1 °F 30% 29.99 in 7.0 mi North 16.1 mph 24.2 mph N/A   Overcast
9:15 AM 46.6 °F - 21.2 °F 37% 29.99 in 5.0 mi North 15.0 mph 21.9 mph N/A   Haze
9:35 AM 46.2 °F 40.5 °F 21.6 °F 38% 30.01 in 7.0 mi North 12.7 mph 18.4 mph N/A   Overcast
9:55 AM 45.9 °F 40.0 °F 21.4 °F 38% 30.02 in 7.0 mi North 12.7 mph 19.6 mph N/A   Overcast
10:15 AM 45.5 °F 39.2 °F 21.9 °F 39% 30.03 in 7.0 mi North 13.8 mph 23.0 mph N/A   Overcast
10:35 AM 44.8 °F 38.3 °F 22.3 °F 41% 30.03 in 7.0 mi North 13.8 mph 19.6 mph N/A   Overcast
10:55 AM 44.2 °F 37.3 °F 23.0 °F 43% 30.02 in 7.0 mi North 15.0 mph 23.0 mph N/A   Overcast
11:15 AM 44.8 °F 39.0 °F 22.3 °F 41% 30.02 in 7.0 mi North 11.5 mph 19.6 mph N/A   Overcast
11:35 AM 45.0 °F 40.1 °F 22.3 °F 41% 30.02 in 10.0 mi North 9.2 mph 18.4 mph N/A   Overcast
11:55 AM 44.6 °F 38.4 °F 22.1 °F 41% 30.02 in 7.0 mi North 12.7 mph 19.6 mph N/A   Overcast
12:15 PM 44.8 °F 38.3 °F 22.1 °F 41% 30.01 in 10.0 mi North 13.8 mph 18.4 mph N/A   Overcast
12:35 PM 44.1 °F 37.1 °F 22.3 °F 42% 30.00 in 7.0 mi North 15.0 mph 23.0 mph N/A   Overcast
12:55 PM 44.4 °F 37.9 °F 21.9 °F 41% 29.98 in 7.0 mi North 13.8 mph 18.4 mph N/A   Overcast
1:15 PM 44.4 °F 39.5 °F 22.1 °F 41% 29.96 in 7.0 mi North 9.2 mph 21.9 mph N/A   Overcast
1:35 PM 44.6 °F 38.1 °F 21.4 °F 40% 29.95 in 10.0 mi North 13.8 mph 19.6 mph N/A   Overcast
1:55 PM 44.6 °F 39.2 °F 21.6 °F 40% 29.95 in 10.0 mi North 10.4 mph 16.1 mph N/A   Overcast
2:15 PM 44.8 °F 38.0 °F 21.6 °F 40% 29.96 in 10.0 mi North 15.0 mph - N/A   Overcast
2:35 PM 44.8 °F 37.7 °F 21.0 °F 39% 29.96 in 10.0 mi North 16.1 mph 20.7 mph N/A   Overcast
2:55 PM 44.2 °F 38.4 °F 22.8 °F 43% 29.97 in 10.0 mi North 11.5 mph 23.0 mph N/A   Overcast
3:15 PM 43.9 °F 37.2 °F 23.7 °F 45% 29.98 in 7.0 mi North 13.8 mph 19.6 mph N/A   Overcast
3:35 PM 42.8 °F 35.4 °F 25.2 °F 50% 29.98 in 7.0 mi North 15.0 mph 23.0 mph N/A   Overcast
3:55 PM 43.2 °F 36.2 °F 24.3 °F 47% 29.99 in 10.0 mi North 13.8 mph - N/A   Overcast
4:15 PM 43.2 °F 35.9 °F 23.7 °F 46% 29.99 in 10.0 mi North 15.0 mph 25.3 mph N/A   Overcast
4:35 PM 42.3 °F 34.1 °F 23.7 °F 48% 29.99 in 10.0 mi North 17.3 mph 24.2 mph N/A   Overcast
4:55 PM 42.1 °F 34.5 °F 23.5 °F 48% 30.00 in 10.0 mi North 15.0 mph 27.6 mph N/A   Overcast
5:15 PM 42.3 °F 35.5 °F 23.4 °F 47% 30.00 in 10.0 mi North 12.7 mph 19.6 mph N/A   Overcast
5:35 PM 42.3 °F 35.5 °F 23.2 °F 47% 30.01 in 10.0 mi North 12.7 mph 17.3 mph N/A   Mostly Cloudy
5:55 PM 41.9 °F 35.4 °F 23.2 °F 47% 30.01 in 10.0 mi North 11.5 mph 19.6 mph N/A   Overcast
6:15 PM 41.9 °F 35.9 °F 23.0 °F 47% 30.01 in 10.0 mi North 10.4 mph 16.1 mph N/A   Overcast
6:35 PM 41.7 °F 34.1 °F 23.7 °F 49% 30.02 in 10.0 mi North 15.0 mph 20.7 mph N/A   Overcast
6:55 PM 40.6 °F 33.0 °F 23.7 °F 51% 30.03 in 10.0 mi North 13.8 mph 24.2 mph N/A   Overcast
7:15 PM 40.3 °F 31.3 °F 23.7 °F 52% 30.03 in 10.0 mi North 18.4 mph 25.3 mph N/A   Overcast
7:35 PM 39.7 °F 31.5 °F 23.9 °F 53% 30.04 in 10.0 mi North 15.0 mph 24.2 mph N/A   Overcast
7:55 PM 39.4 °F 31.1 °F 24.4 °F 55% 30.05 in 10.0 mi North 15.0 mph 20.7 mph N/A   Overcast
8:15 PM 39.4 °F 31.4 °F 24.6 °F 56% 30.05 in 10.0 mi North 13.8 mph 19.6 mph N/A   Overcast
8:35 PM 39.2 °F 33.6 °F 24.8 °F 56% 30.05 in 10.0 mi North 8.1 mph 18.4 mph N/A   Overcast
8:55 PM 38.8 °F 31.6 °F 24.8 °F 57% 30.04 in 10.0 mi North 11.5 mph 20.7 mph N/A   Overcast
9:15 PM 38.8 °F 32.1 °F 25.2 °F 58% 30.05 in 10.0 mi North 10.4 mph - N/A   Overcast
9:35 PM 39.2 °F 31.2 °F 25.7 °F 58% 30.06 in 10.0 mi North 13.8 mph 20.7 mph N/A   Overcast
9:55 PM 38.8 °F 31.6 °F 25.9 °F 60% 30.05 in 10.0 mi North 11.5 mph 17.3 mph N/A   Overcast
10:15 PM 38.8 °F 32.6 °F 26.2 °F 61% 30.06 in 10.0 mi North 9.2 mph 20.7 mph N/A   Overcast
10:35 PM 38.8 °F 32.1 °F 25.7 °F 59% 30.06 in 10.0 mi North 10.4 mph - N/A   Overcast
10:55 PM 38.7 °F 30.9 °F 26.2 °F 61% 30.06 in 10.0 mi North 12.7 mph 21.9 mph N/A   Overcast
11:15 PM 38.5 °F 31.6 °F 26.6 °F 62% 30.06 in 10.0 mi North 10.4 mph 18.4 mph N/A   Overcast
11:35 PM 38.3 °F 30.1 °F 27.1 °F 64% 30.04 in 10.0 mi North 13.8 mph 23.0 mph N/A   Overcast
11:55 PM 38.5 °F 30.7 °F 27.9 °F 66% 30.04 in 10.0 mi North 12.7 mph 21.9 mph N/A   Overcast